Location: Москва
(55.7504°N, 37.6175°E)
Time: 23:19:52
(UTC+03:00)

ISS - Visible Passes

Search period start: 25 September 2022 00:00
Search period end: 05 October 2022 00:00
Orbit: 414 x 417 km, 51.6° (Epoch: 25 September)

Date Brightness Start Highest point End Pass type
(mag) Time Alt. Az. Time Alt. Az. Time Alt. Az.
25 Sep -2.9 20:01:16 10° WSW 20:04:26 38° S 20:05:28 29° SE visible
25 Sep -0.7 21:38:07 10° WSW 21:38:20 11° WSW 21:38:20 11° WSW visible
26 Sep -3.0 19:12:40 10° WSW 19:15:52 41° S 19:18:37 13° ESE visible
26 Sep -1.9 20:49:20 10° W 20:51:30 23° SW 20:51:30 23° SW visible
27 Sep -2.5 20:00:38 10° W 20:03:37 30° SSW 20:04:39 25° SSE visible
28 Sep -2.6 19:11:57 10° W 19:15:04 35° SSW 19:17:49 12° SE visible
28 Sep -1.3 20:49:03 10° WSW 20:50:42 15° SW 20:50:42 15° SW visible
29 Sep -1.8 20:00:06 10° WSW 20:02:40 20° SSW 20:03:53 17° S visible
30 Sep -2.0 19:11:16 10° W 19:14:07 26° SSW 19:16:57 10° SE visible
01 Oct -1.1 20:00:05 10° WSW 20:01:31 12° SW 20:02:57 10° S visible
02 Oct -1.2 19:10:47 10° WSW 19:13:00 17° SSW 19:15:12 10° S visible
